Location: LewisvilleTX
(33.0462°N, 96.9942°W)
Time: 21:43:10
(UTC+00:00)

Envisat - Pass Details

Date: 28 September 2020
Orbit: 764 x 766 km, 98.1° (Epoch: 26 October)

Event Time Altitude Azimuth Distance (km) Brightness Sun altitude
Rises 01:08:26 0° 215° (SW) 3,218 6.7 -11.6°
Reaches altitude 10° 01:12:17 10° 245° (WSW) 2,298 6.4 -12.4°
Maximum altitude 01:14:15 12° 268° (W) 2,151 6.7 -12.8°
Drops below altitude 10° 01:16:13 10° 291° (WNW) 2,303 6.8 -13.2°
Sets 01:20:07 0° 321° (NW) 3,235 7.0 -14.0°
